timestamp,surface_pressure_avg,surface_temp_avg,battery_voltage,lat,long
2023-09-09 00:09:01+00:00,236.1664,20.2,12.17,47.84626,-54.09684
2023-09-09 00:19:00+00:00,235.5815,20.1,12.09,47.84626,-54.09684
2023-09-09 00:29:00+00:00,234.1764,19.74,12.09,47.84626,-54.09684
2023-09-09 00:39:00+00:00,231.6214,19.4,12.09,47.84626,-54.09684
2023-09-09 00:49:00+00:00,231.9881,19.45,12.09,47.84626,-54.09684
2023-09-09 00:59:00+00:00,232.0348,19.71,12.09,47.84626,-54.09684
2023-09-09 01:09:00+00:00,228.6581,20.08,12.09,47.84626,-54.09684
2023-09-09 01:19:00+00:00,227.8448,20.09,12.09,47.84626,-54.09684
2023-09-09 01:29:00+00:00,229.5714,20.15,12.09,47.84626,-54.09684
2023-09-09 01:39:00+00:00,227.5948,20.37,12.09,47.84626,-54.09684
2023-09-09 01:49:00+00:00,224.8831,20.4,12.09,47.84626,-54.09684
2023-09-09 01:59:00+00:00,224.4298,20.39,12.09,47.84626,-54.09684
2023-09-09 02:09:00+00:00,226.4481,20.3,12.09,47.84626,-54.09684
2023-09-09 02:19:00+00:00,224.1648,20.3,12.09,47.84626,-54.09684
2023-09-09 02:29:00+00:00,223.4048,20.23,12.09,47.84626,-54.09684
2023-09-09 02:39:00+00:00,227.2214,19.56,12.09,47.84626,-54.09684
2023-09-09 02:49:00+00:00,230.4814,19.47,12.09,47.84626,-54.09684
2023-09-09 02:59:00+00:00,230.9898,19.3,12.09,47.84626,-54.09684
2023-09-09 03:09:00+00:00,231.8447,19.36,12.09,47.84626,-54.09684
2023-09-09 03:19:00+00:00,233.8498,19.49,12.09,47.84626,-54.09684
2023-09-09 03:29:00+00:00,238.1164,19.5,12.09,47.84626,-54.09684
2023-09-09 03:39:00+00:00,242.6981,19.67,12.09,47.84626,-54.09684
2023-09-09 03:49:00+00:00,242.4548,19.74,12.09,47.84626,-54.09684
2023-09-09 03:59:00+00:00,242.2014,19.8,12.09,47.84626,-54.09684
2023-09-09 04:09:00+00:00,246.9948,18.88,12.09,47.84626,-54.09684
2023-09-09 04:19:00+00:00,254.6931,18.74,12.09,47.84626,-54.09684
2023-09-09 04:29:00+00:00,255.1098,18.88,12.09,47.84626,-54.09684
2023-09-09 04:39:00+00:00,254.5331,19.0,12.09,47.84626,-54.09684
2023-09-09 04:49:00+00:00,261.803,18.9,12.09,47.84626,-54.09684
2023-09-09 04:59:00+00:00,267.5348,18.98,12.09,47.84626,-54.09684
2023-09-09 05:09:00+00:00,266.8781,19.09,12.09,47.84626,-54.09684
2023-09-09 05:19:00+00:00,266.9297,19.0,12.09,47.84626,-54.09684
2023-09-09 05:29:00+00:00,274.358,18.99,12.09,47.84626,-54.09684
2023-09-09 05:39:00+00:00,277.133,18.91,12.09,47.84626,-54.09684
2023-09-09 05:49:00+00:00,278.5714,18.9,12.09,47.84626,-54.09684
2023-09-09 05:59:00+00:00,281.1697,18.89,12.09,47.84626,-54.09684
2023-09-09 06:09:00+00:00,285.243,18.8,12.09,47.84626,-54.09684
2023-09-09 06:19:00+00:00,283.7847,18.72,12.09,47.84626,-54.09684
2023-09-09 06:29:00+00:00,287.8697,18.74,12.09,47.84626,-54.09684
2023-09-09 06:39:00+00:00,293.46299999999997,18.7,12.09,47.84626,-54.09684
2023-09-09 06:49:00+00:00,296.3447,18.69,12.09,47.84626,-54.09684
2023-09-09 06:59:00+00:00,294.2264,18.6,12.09,47.84626,-54.09684
2023-09-09 07:09:00+00:00,292.863,18.6,12.09,47.84626,-54.09684
2023-09-09 07:19:00+00:00,292.118,18.5,12.09,47.84626,-54.09684
2023-09-09 07:29:00+00:00,293.258,18.4,12.09,47.84626,-54.09684
2023-09-09 07:39:00+00:00,294.5131,18.4,12.09,47.84626,-54.09684
2023-09-09 07:49:00+00:00,293.2447,18.43,12.09,47.84626,-54.09684
2023-09-09 07:59:00+00:00,291.303,18.45,12.09,47.84626,-54.09684
2023-09-09 08:09:00+00:00,284.9647,18.42,12.09,47.84626,-54.09684
2023-09-09 08:19:01+00:00,285.4314,18.4,12.09,47.84626,-54.09684
2023-09-09 08:29:01+00:00,284.6781,18.4,12.09,47.84626,-54.09684
2023-09-09 08:39:01+00:00,279.863,18.4,12.09,47.84626,-54.09684
2023-09-09 08:49:01+00:00,272.6247,18.4,12.09,47.84626,-54.09684
2023-09-09 08:59:01+00:00,273.8781,18.4,12.09,47.84626,-54.09684
2023-09-09 09:09:01+00:00,271.4731,18.39,12.09,47.84626,-54.09684
2023-09-09 09:19:00+00:00,264.1048,18.4,12.09,47.84626,-54.09684
2023-09-09 09:29:00+00:00,260.1364,18.4,12.09,47.84626,-54.09684
2023-09-09 09:39:00+00:00,262.7114,18.4,12.09,47.84626,-54.09684
2023-09-09 09:49:00+00:00,256.5831,18.39,12.09,47.84626,-54.09684
2023-09-09 09:59:00+00:00,246.2014,18.38,12.09,47.84626,-54.09684
2023-09-09 10:09:00+00:00,245.3247,18.39,12.09,47.84626,-54.09684
2023-09-09 10:19:00+00:00,248.308,18.4,12.09,47.84626,-54.09684
2023-09-09 10:29:00+00:00,243.1247,18.4,12.09,47.84626,-54.09684
2023-09-09 10:39:00+00:00,235.8764,18.48,12.09,47.84626,-54.09684
2023-09-09 10:49:00+00:00,237.6781,18.52,12.09,47.84626,-54.09684
2023-09-09 10:59:00+00:00,240.5648,18.5,12.09,47.84626,-54.09684
2023-09-09 11:09:00+00:00,236.9948,18.46,12.09,47.84626,-54.09684
2023-09-09 11:19:00+00:00,232.9064,18.5,12.09,47.84626,-54.09684
2023-09-09 11:29:00+00:00,235.1931,18.5,12.09,47.84626,-54.09684
2023-09-09 11:39:00+00:00,235.3148,18.5,12.09,47.84626,-54.09684
2023-09-09 11:49:00+00:00,232.9081,18.55,12.09,47.84626,-54.09684
2023-09-09 11:59:00+00:00,233.3531,18.6,12.09,47.84626,-54.09684
2023-09-09 12:09:00+00:00,235.3497,18.3,12.09,47.84626,-54.09684
2023-09-09 12:19:00+00:00,232.2764,18.4,12.17,47.84626,-54.09684
2023-09-09 12:29:00+00:00,230.4081,18.4,12.17,47.84626,-54.09684
2023-09-09 12:39:00+00:00,234.2048,18.3,12.17,47.84626,-54.09684
2023-09-09 12:49:00+00:00,236.5631,18.3,12.17,47.84626,-54.09684
2023-09-09 12:59:00+00:00,233.9331,18.3,12.17,47.84626,-54.09684
2023-09-09 13:09:00+00:00,231.6614,18.3,12.17,47.84626,-54.09684
2023-09-09 13:19:00+00:00,234.0197,18.3,12.49,47.84626,-54.09684
2023-09-09 13:29:00+00:00,233.0797,18.28,12.49,47.84626,-54.09684
2023-09-09 13:39:00+00:00,229.0397,18.3,12.49,47.84626,-54.09684
2023-09-09 13:49:00+00:00,228.0331,18.3,12.49,47.84626,-54.09684
2023-09-09 13:59:00+00:00,231.6314,18.2,12.49,47.84626,-54.09684
2023-09-09 14:09:00+00:00,229.6647,18.2,12.49,47.84626,-54.09684
2023-09-09 14:19:00+00:00,226.8281,18.2,12.65,47.84626,-54.09684
2023-09-09 14:29:00+00:00,228.7598,18.2,12.65,47.84626,-54.09684
2023-09-09 14:39:00+00:00,230.7381,18.17,12.65,47.84626,-54.09684
2023-09-09 14:49:00+00:00,229.8931,18.12,12.65,47.84626,-54.09684
2023-09-09 14:59:00+00:00,232.4297,18.2,12.65,47.84626,-54.09684
2023-09-09 15:09:00+00:00,235.3114,18.2,12.65,47.84626,-54.09684
2023-09-09 15:19:00+00:00,237.5031,18.18,12.57,47.84626,-54.09684
2023-09-09 15:29:00+00:00,240.4698,18.2,12.57,47.84626,-54.09684
2023-09-09 15:39:00+00:00,243.9881,18.18,12.57,47.84626,-54.09684
2023-09-09 15:49:00+00:00,247.5031,18.1,12.57,47.84626,-54.09684
2023-09-09 15:59:00+00:00,249.6364,18.15,12.57,47.84626,-54.09684
2023-09-09 16:09:00+00:00,254.1997,18.1,12.57,47.84626,-54.09684
2023-09-09 16:19:00+00:00,261.0597,18.1,12.49,47.84626,-54.09684
2023-09-09 16:29:00+00:00,265.9481,18.17,12.49,47.84626,-54.09684
2023-09-09 16:39:00+00:00,268.1514,18.2,12.49,47.84626,-54.09684
2023-09-09 16:49:00+00:00,272.7781,18.19,12.49,47.84626,-54.09684
2023-09-09 16:59:00+00:00,278.8798,18.13,12.49,47.84626,-54.09684
2023-09-09 17:09:00+00:00,282.7047,18.19,12.49,47.84626,-54.09684
2023-09-09 17:19:00+00:00,285.5514,18.08,12.41,47.84626,-54.09684
2023-09-09 17:29:00+00:00,289.6047,18.12,12.41,47.84626,-54.09684
2023-09-09 17:39:00+00:00,292.4431,18.18,12.41,47.84626,-54.09684
2023-09-09 17:49:00+00:00,296.5863,18.2,12.41,47.84626,-54.09684
2023-09-09 17:59:00+00:00,300.2663,18.29,12.41,47.84626,-54.09684
2023-09-09 18:09:00+00:00,301.5564,18.2,12.41,47.84626,-54.09684
2023-09-09 18:19:00+00:00,302.0264,18.1,12.33,47.84626,-54.09684
2023-09-09 18:29:00+00:00,307.2263,18.0,12.33,47.84626,-54.09684
2023-09-09 18:39:00+00:00,310.7847,18.0,12.33,47.84626,-54.09684
2023-09-09 18:49:00+00:00,312.0447,17.99,12.33,47.84626,-54.09684
2023-09-09 18:59:00+00:00,315.043,18.1,12.33,47.84626,-54.09684
2023-09-09 19:09:00+00:00,320.8963,17.8,12.33,47.84626,-54.09684
2023-09-09 19:19:00+00:00,321.368,17.81,12.25,47.84626,-54.09684
2023-09-09 19:29:00+00:00,320.0013,18.0,12.25,47.84626,-54.09684
2023-09-09 19:39:00+00:00,321.9513,17.7,12.25,47.84626,-54.09684
2023-09-09 19:49:00+00:00,324.6929,17.7,12.25,47.84626,-54.09684
2023-09-09 19:59:00+00:00,323.828,17.7,12.25,47.84626,-54.09684
2023-09-09 20:09:00+00:00,323.0696,17.7,12.25,47.84626,-54.09684
2023-09-09 20:19:00+00:00,324.7113,17.7,12.25,47.84626,-54.09684
2023-09-09 20:29:00+00:00,324.7513,17.7,12.25,47.84626,-54.09684
2023-09-09 20:39:00+00:00,321.178,17.7,12.25,47.84626,-54.09684
2023-09-09 20:49:00+00:00,321.2797,17.7,12.25,47.84626,-54.09684
2023-09-09 20:59:00+00:00,321.4197,17.7,12.25,47.84626,-54.09684
2023-09-09 21:09:00+00:00,320.298,17.7,12.25,47.84626,-54.09684
2023-09-09 21:19:00+00:00,315.8963,17.75,12.25,47.84626,-54.09684
2023-09-09 21:29:00+00:00,313.4313,17.79,12.25,47.84626,-54.09684
2023-09-09 21:39:00+00:00,312.5613,17.8,12.25,47.84626,-54.09684
2023-09-09 21:49:00+00:00,310.113,17.8,12.25,47.84626,-54.09684
2023-09-09 21:59:00+00:00,305.8647,17.8,12.25,47.84626,-54.09684
2023-09-09 22:09:00+00:00,303.0829,17.8,12.25,47.84626,-54.09684
2023-09-09 22:19:00+00:00,302.4364,17.8,12.17,47.84626,-54.09684
2023-09-09 22:29:00+00:00,298.5614,17.8,12.17,47.84626,-54.09684
2023-09-09 22:39:00+00:00,290.9214,17.8,12.17,47.84626,-54.09684
2023-09-09 22:49:00+00:00,287.3563,17.87,12.17,47.84626,-54.09684
2023-09-09 22:59:00+00:00,286.2047,17.89,12.17,47.84626,-54.09684
2023-09-09 23:09:00+00:00,281.1847,17.9,12.17,47.84626,-54.09684
2023-09-09 23:19:00+00:00,275.4747,17.9,12.17,47.84626,-54.09684
2023-09-09 23:29:00+00:00,271.4714,17.9,12.17,47.84626,-54.09684
2023-09-09 23:39:00+00:00,267.6664,17.9,12.17,47.84626,-54.09684
2023-09-09 23:49:00+00:00,260.7264,17.9,12.17,47.84626,-54.09684
2023-09-09 23:59:00+00:00,253.5781,17.95,12.17,47.84626,-54.09684
